Home > Weather > Temple > Past weeks

Flag for USA Past Weather in Temple, Texas, USA — Yesterday and Last 2 Weeks

Now
74 °F

Mostly cloudy.


Feels Like: 73 °F
Forecast: 75 / 92 °F
Wind: 8 mph from South

Location: Fort Hood AAF Airport

Current Time: Jul 28, 2016 at 5:39:24 AM

Latest Report: Jul 28, 2016 at 4:58 AM


Visibility: 10 mi

Pressure: 29.92 "Hg

Humidity: 88%

Dew Point: 71 °F

Location of TempleLocation

Past Weather in Temple — Graph

°F

Temple Temperature Yesterday

Maximum temperature yesterday: 92 °F (at 5:58 PM)
Minimum temperature yesterday: 73 °F (at 5:58 AM)
Average temperature yesterday: 82 °F

High & Low Weather Summary for the Past Weeks

 TemperatureHumidityPressure
High98 °F (Jul 23, 4:58 PM)98% (Jul 26, 6:58 AM)30.16 "Hg (Jul 26, 6:58 AM)
Low72 °F (Jul 17, 6:58 AM)31% (Jul 22, 3:58 PM)29.81 "Hg (Jul 25, 3:58 PM)
Average85 °F62%29.97 "Hg
* Reported Jul 13 3:58 AM — Jul 28 3:58 AM, Temple, Weather by CustomWeather, © 2016

Note: Actual official high and low records may vary slightly from our data, if they occured in-between our weather recording intervals... More about our weather records

Advertising

Temple Weather History for the Previous 24 Hours

Scroll right to see more
 ConditionsComfort  
Time TempWeatherWind HumidityBarometerVisibility
3:58 AM
Thu, Jul 28
75 °FPassing clouds.8 mph84%29.91 "Hg10 mi
2:58 AM76 °FPassing clouds.6 mph81%29.93 "Hg10 mi
1:58 AM77 °FClear.6 mph79%29.92 "Hg10 mi
12:58 AM78 °FPassing clouds.7 mph75%29.91 "Hg10 mi
11:58 PM
Wed, Jul 27
78 °FClear.7 mph73%29.92 "Hg10 mi
10:58 PM79 °FClear.5 mph71%29.92 "Hg10 mi
9:58 PM82 °FPassing clouds.6 mph64%29.90 "Hg10 mi
8:58 PM83 °FThundershowers. Overcast.5 mph61%29.88 "Hg10 mi
7:58 PM83 °FSunny.7 mph67%29.86 "Hg9 mi
6:58 PM88 °FSunny.18 mph55%29.85 "Hg9 mi
5:58 PM92 °FPassing clouds.13 mph49%29.83 "Hg10 mi
4:58 PM90 °FScattered clouds.8 mph56%29.86 "Hg10 mi
3:58 PM88 °FPassing clouds.12 mph64%29.86 "Hg10 mi
2:58 PM86 °FBroken clouds.8 mph67%29.88 "Hg8 mi
1:58 PM89 °FMostly cloudy.5 mph54%29.89 "Hg10 mi
12:58 PM90 °FCloudy.3 mph53%29.91 "Hg10 mi
11:58 AM87 °FSunny.3 mph59%29.93 "Hg10 mi
11:03 AM84 °FPartly sunny.8 mph66%29.98 "Hg10 mi
9:58 AM83 °FScattered clouds.8 mph69%29.94 "Hg10 mi
8:58 AM80 °FSunny.5 mph71%29.94 "Hg10 mi
7:58 AM76 °FSunny.6 mph85%29.93 "Hg10 mi
6:58 AM74 °FClear.6 mph88%29.91 "Hg9 mi
5:58 AM73 °FClear.5 mph91%29.90 "Hg10 mi
Weather by CustomWeather, © 2016

See weather overviewHow to use our weather pages